�������l�o���
Date,Time,MP-1(��Sv/h),MP-2(��Sv/h),MP-3(��Sv/h),MP-4(��Sv/h),MP-5(��Sv/h),MP-6(��Sv/h),MP-7(��Sv/h),����,����(m/s),���J
2018/08/02,00:00,0.330,0.204,0.332,0.318,0.289,0.162,0.099,�k,2.3,��
2018/08/02,00:10,0.328,0.206,0.336,0.319,0.290,0.161,0.100,�k�k��,2.3,��
2018/08/02,00:20,0.326,0.205,0.336,0.323,0.293,0.161,0.099,�k��,1.7,��
2018/08/02,00:30,0.327,0.204,0.334,0.320,0.292,0.162,0.099,���k��,1.5,��
2018/08/02,00:40,0.328,0.205,0.331,0.318,0.288,0.162,0.100,���쐼,1.3,��
2018/08/02,00:50,0.327,0.205,0.337,0.323,0.291,0.161,0.099,��,2.2,��
2018/08/02,01:00,0.327,0.204,0.335,0.321,0.293,0.162,0.099,��,3.6,��
2018/08/02,01:10,0.329,0.205,0.331,0.317,0.290,0.162,0.100,�k��,2.1,��
2018/08/02,01:20,0.326,0.205,0.335,0.321,0.288,0.162,0.099,�k��,2.1,��
2018/08/02,01:30,0.326,0.204,0.335,0.322,0.291,0.161,0.099,�k�k��,2.9,��
2018/08/02,01:40,0.329,0.206,0.332,0.319,0.293,0.162,0.099,�k��,2.5,��
2018/08/02,01:50,0.328,0.204,0.334,0.319,0.291,0.160,0.100,�k��,2.0,��
2018/08/02,02:00,0.326,0.204,0.335,0.321,0.289,0.160,0.099,�k��,1.1,��
2018/08/02,02:10,0.330,0.205,0.334,0.320,0.290,0.162,0.098,���쐼,1.3,��
2018/08/02,02:20,0.328,0.204,0.332,0.316,0.293,0.161,0.100,���쐼,0.8,��
2018/08/02,02:30,0.326,0.204,0.337,0.322,0.290,0.161,0.100,-,CALM,��
2018/08/02,02:40,0.328,0.205,0.336,0.322,0.288,0.162,0.098,�k��,1.3,��
2018/08/02,02:50,0.331,0.206,0.333,0.319,0.293,0.162,0.099,�k�k��,1.8,��
2018/08/02,03:00,0.329,0.205,0.333,0.320,0.293,0.161,0.100,�k,2.6,��
2018/08/02,03:10,0.325,0.204,0.335,0.323,0.291,0.162,0.099,�k,4.3,��
2018/08/02,03:20,0.330,0.206,0.335,0.321,0.290,0.161,0.100,�k,3.2,��
2018/08/02,03:30,0.329,0.205,0.331,0.318,0.295,0.162,0.101,�k,3.2,��
2018/08/02,03:40,0.326,0.204,0.336,0.322,0.293,0.162,0.100,�k�k��,3.5,��
2018/08/02,03:50,0.326,0.206,0.335,0.320,0.290,0.161,0.100,�k,2.6,��
2018/08/02,04:00,0.330,0.204,0.333,0.320,0.289,0.163,0.099,�k,2.6,��
2018/08/02,04:10,0.327,0.203,0.334,0.322,0.294,0.162,0.100,�k,1.2,��
2018/08/02,04:20,0.326,0.206,0.337,0.323,0.293,0.163,0.101,�k�k��,1.5,��
2018/08/02,04:30,0.330,0.204,0.333,0.319,0.289,0.161,0.100,�k�k��,1.3,��
2018/08/02,04:40,0.326,0.203,0.334,0.322,0.291,0.162,0.101,�k�k��,1.7,��
2018/08/02,04:50,0.327,0.207,0.338,0.322,0.294,0.162,0.099,�k��,1.5,��
2018/08/02,05:00,0.331,0.204,0.333,0.320,0.291,0.162,0.099,�k�k��,1.9,��
2018/08/02,05:10,0.329,0.205,0.333,0.321,0.291,0.163,0.100,�k�k��,1.2,��
2018/08/02,05:20,0.326,0.205,0.337,0.321,0.295,0.161,0.099,�k�k��,0.9,��
2018/08/02,05:30,0.330,0.204,0.335,0.319,0.292,0.161,0.099,�k,1.0,��
2018/08/02,05:40,0.328,0.203,0.334,0.321,0.289,0.161,0.099,��,0.9,��
2018/08/02,05:50,0.325,0.206,0.336,0.323,0.289,0.161,0.098,�k��,0.7,��
2018/08/02,06:00,0.329,0.204,0.334,0.320,0.294,0.161,0.098,-,CALM,��
2018/08/02,06:10,0.328,0.203,0.330,0.318,0.292,0.161,0.099,�k��,0.6,��
2018/08/02,06:20,0.326,0.203,0.335,0.322,0.288,0.162,0.099,-,CALM,��
2018/08/02,06:30,0.325,0.203,0.334,0.320,0.290,0.161,0.098,��,0.8,��
2018/08/02,06:40,0.329,0.206,0.331,0.318,0.288,0.162,0.098,�k�k��,0.7,��
2018/08/02,06:50,0.328,0.204,0.332,0.318,0.287,0.161,0.099,-,CALM,��
2018/08/02,07:00,0.325,0.205,0.335,0.322,0.289,0.161,0.099,-,CALM,��
2018/08/02,07:10,0.324,0.204,0.335,0.322,0.288,0.162,0.099,-,CALM,��
2018/08/02,07:20,0.330,0.203,0.334,0.320,0.289,0.162,0.099,�k�k��,0.9,��
2018/08/02,07:30,0.328,0.204,0.333,0.320,0.288,0.161,0.099,���k��,0.7,��
2018/08/02,07:40,0.326,0.204,0.332,0.318,0.290,0.161,0.099,��,1.2,��
2018/08/02,07:50,0.325,0.206,0.333,0.318,0.289,0.161,0.099,���k��,1.0,��
2018/08/02,08:00,0.325,0.204,0.333,0.318,0.289,0.161,0.099,��,0.7,��
2018/08/02,08:10,0.325,0.205,0.334,0.319,0.290,0.161,0.100,���k��,0.7,��
2018/08/02,08:20,0.326,0.203,0.333,0.318,0.292,0.161,0.099,-,CALM,��
2018/08/02,08:30,0.327,0.205,0.332,0.320,0.291,0.161,0.099,-,CALM,��
2018/08/02,08:40,0.326,0.204,0.332,0.320,0.293,0.161,0.100,�k��,0.9,��
2018/08/02,08:50,0.327,0.204,0.333,0.320,0.291,0.162,0.100,���k��,1.2,��
2018/08/02,09:00,0.326,0.205,0.333,0.320,0.292,0.162,0.099,�k��,1.0,��
2018/08/02,09:10,0.326,0.204,0.332,0.319,0.291,0.162,0.099,��,1.2,��
2018/08/02,09:20,0.327,0.206,0.332,0.320,0.291,0.162,0.100,��,0.9,��
2018/08/02,09:30,0.328,0.206,0.332,0.320,0.292,0.162,0.100,��쓌,0.7,��
2018/08/02,09:40,0.327,0.205,0.332,0.322,0.292,0.162,0.101,��쓌,1.2,��
2018/08/02,09:50,0.326,0.205,0.332,0.321,0.292,0.161,0.100,��쓌,0.6,��
2018/08/02,10:00,0.328,0.206,0.332,0.321,0.291,0.162,0.099,��,1.4,��
2018/08/02,10:10,0.329,0.206,0.333,0.323,0.293,0.162,0.100,��쓌,1.3,��
2018/08/02,10:20,0.328,0.206,0.333,0.323,0.292,0.162,0.099,�쓌,1.6,��
2018/08/02,10:30,0.329,0.205,0.333,0.319,0.291,0.161,0.098,�쓌,2.1,��
2018/08/02,10:40,0.329,0.205,0.334,0.320,0.290,0.158,0.099,��쓌,1.0,��
2018/08/02,10:50,0.328,0.204,0.335,0.320,0.290,0.159,0.099,�쓌,1.4,��
2018/08/02,11:00,0.326,0.206,0.335,0.320,0.290,0.160,0.098,���쓌,1.8,��
2018/08/02,11:10,0.328,0.205,0.334,0.319,0.291,0.161,0.099,�쓌,1.5,��
2018/08/02,11:20,0.329,0.205,0.332,0.319,0.290,0.160,0.099,�쓌,1.5,��
2018/08/02,11:30,0.327,0.205,0.335,0.320,0.291,0.160,0.099,��쓌,1.2,��
2018/08/02,11:40,0.328,0.206,0.333,0.320,0.291,0.160,0.099,�쓌,2.1,��
2018/08/02,11:50,0.329,0.205,0.335,0.321,0.292,0.159,0.099,�쓌,2.1,��
2018/08/02,12:00,0.330,0.206,0.333,0.321,0.291,0.160,0.099,�쓌,2.7,��
2018/08/02,12:10,0.328,0.205,0.335,0.321,0.292,0.160,0.100,�쓌,2.6,��
2018/08/02,12:20,0.328,0.204,0.335,0.320,0.290,0.159,0.099,��쓌,2.0,��
2018/08/02,12:30,0.327,0.205,0.335,0.321,0.290,0.160,0.099,��쓌,2.4,��
2018/08/02,12:40,0.326,0.204,0.334,0.319,0.289,0.159,0.099,��,2.6,��
2018/08/02,12:50,0.327,0.205,0.333,0.321,0.289,0.160,0.098,��쓌,3.4,��
2018/08/02,13:00,0.328,0.203,0.334,0.321,0.292,0.159,0.099,��쓌,3.3,��
2018/08/02,13:10,0.328,0.204,0.334,0.321,0.291,0.160,0.098,��,3.2,��
2018/08/02,13:20,0.327,0.205,0.335,0.322,0.293,0.160,0.098,��,3.4,��
2018/08/02,13:30,0.330,0.207,0.335,0.322,0.292,0.160,0.099,��쓌,3.5,��
2018/08/02,13:40,0.329,0.205,0.336,0.320,0.290,0.160,0.099,��쓌,4.1,��
2018/08/02,13:50,0.327,0.203,0.335,0.319,0.291,0.160,0.099,��쓌,4.4,��
2018/08/02,14:00,0.327,0.205,0.335,0.321,0.291,0.159,0.099,��쓌,4.5,��
2018/08/02,14:10,0.327,0.205,0.336,0.319,0.290,0.159,0.099,��쓌,4.5,��
2018/08/02,14:20,0.327,0.205,0.335,0.321,0.291,0.160,0.099,��쓌,4.5,��
2018/08/02,14:30,0.328,0.205,0.334,0.323,0.291,0.160,0.098,��쓌,4.3,��
2018/08/02,14:40,0.331,0.206,0.335,0.322,0.292,0.160,0.099,��쓌,5.1,��
2018/08/02,14:50,0.331,0.206,0.334,0.323,0.293,0.160,0.099,��쓌,4.4,��
2018/08/02,15:00,0.332,0.206,0.335,0.321,0.293,0.161,0.100,��쓌,4.1,��
2018/08/02,15:10,0.330,0.206,0.335,0.322,0.294,0.159,0.099,��쓌,5.0,��
2018/08/02,15:20,0.331,0.205,0.334,0.321,0.293,0.161,0.099,��쓌,3.1,��
2018/08/02,15:30,0.331,0.206,0.335,0.320,0.293,0.161,0.099,��쓌,4.9,��
2018/08/02,15:40,0.330,0.205,0.335,0.321,0.292,0.161,0.100,��쓌,4.7,��
2018/08/02,15:50,0.328,0.204,0.335,0.321,0.290,0.159,0.099,��쓌,4.6,��
2018/08/02,16:00,0.325,0.205,0.333,0.321,0.287,0.161,0.098,��쓌,5.0,��
2018/08/02,16:10,0.325,0.204,0.335,0.321,0.288,0.160,0.098,��,5.5,��
2018/08/02,16:20,0.328,0.205,0.333,0.320,0.291,0.159,0.098,��쓌,5.2,��
2018/08/02,16:30,0.328,0.205,0.334,0.319,0.290,0.161,0.098,��쓌,4.6,��
2018/08/02,16:40,0.328,0.205,0.333,0.319,0.291,0.160,0.098,��쓌,4.7,��
2018/08/02,16:50,0.331,0.204,0.332,0.320,0.291,0.162,0.099,��쓌,4.3,��
2018/08/02,17:00,0.328,0.205,0.333,0.319,0.290,0.163,0.098,��쓌,5.9,��
2018/08/02,17:10,0.329,0.203,0.333,0.318,0.290,0.162,0.099,��,5.1,��
2018/08/02,17:20,0.329,0.204,0.334,0.319,0.290,0.162,0.098,��,4.1,��
2018/08/02,17:30,0.327,0.203,0.332,0.319,0.290,0.161,0.100,��,5.5,��
2018/08/02,17:40,0.326,0.203,0.334,0.325,0.289,0.162,0.099,��,5.4,��
2018/08/02,17:50,0.326,0.204,0.338,0.324,0.288,0.161,0.099,��,5.2,��
2018/08/02,18:00,0.325,0.202,0.340,0.323,0.290,0.161,0.099,��,5.3,��
2018/08/02,18:10,0.326,0.207,0.335,0.321,0.290,0.162,0.099,��,4.8,��
2018/08/02,18:20,0.330,0.206,0.334,0.320,0.288,0.162,0.098,��,5.3,��
2018/08/02,18:30,0.331,0.205,0.333,0.320,0.290,0.161,0.098,��,5.3,��
2018/08/02,18:40,0.328,0.204,0.333,0.321,0.294,0.162,0.098,��,5.0,��
2018/08/02,18:50,0.326,0.204,0.338,0.323,0.293,0.162,0.100,��,6.0,��
2018/08/02,19:00,0.326,0.206,0.338,0.323,0.290,0.162,0.099,��,5.0,��
2018/08/02,19:10,0.331,0.205,0.335,0.321,0.290,0.163,0.099,��,4.6,��
2018/08/02,19:20,0.331,0.204,0.333,0.319,0.289,0.161,0.098,��,5.0,��
2018/08/02,19:30,0.328,0.203,0.335,0.320,0.291,0.163,0.099,��,5.6,��
2018/08/02,19:40,0.326,0.205,0.338,0.325,0.294,0.163,0.099,��,4.8,��
2018/08/02,19:50,0.330,0.205,0.336,0.322,0.292,0.161,0.100,��,3.5,��
2018/08/02,20:00,0.332,0.205,0.334,0.320,0.290,0.162,0.099,��쐼,4.5,��
2018/08/02,20:10,0.328,0.204,0.333,0.320,0.291,0.163,0.098,��쐼,5.3,��
2018/08/02,20:20,0.326,0.205,0.339,0.325,0.294,0.162,0.100,��,4.3,��
2018/08/02,20:30,0.331,0.205,0.336,0.324,0.292,0.160,0.100,��,4.2,��
2018/08/02,20:40,0.330,0.204,0.334,0.321,0.290,0.163,0.098,��,4.1,��
2018/08/02,20:50,0.328,0.206,0.336,0.321,0.290,0.163,0.100,��,3.2,��
2018/08/02,21:00,0.326,0.207,0.338,0.325,0.293,0.162,0.100,��,4.0,��
2018/08/02,21:10,0.331,0.205,0.335,0.322,0.293,0.162,0.100,��,3.9,��
2018/08/02,21:20,0.330,0.204,0.333,0.320,0.291,0.164,0.099,��,4.0,��
2018/08/02,21:30,0.328,0.207,0.337,0.321,0.290,0.163,0.100,��,4.0,��
2018/08/02,21:40,0.328,0.205,0.338,0.325,0.294,0.163,0.101,��,4.0,��
2018/08/02,21:50,0.334,0.206,0.335,0.323,0.294,0.164,0.099,��,2.5,��
2018/08/02,22:00,0.329,0.207,0.334,0.322,0.291,0.164,0.100,��,3.4,��
2018/08/02,22:10,0.328,0.207,0.339,0.323,0.292,0.162,0.100,��쐼,3.2,��
2018/08/02,22:20,0.333,0.205,0.340,0.326,0.296,0.165,0.101,-,CALM,��
2018/08/02,22:30,0.332,0.207,0.336,0.324,0.293,0.164,0.102,-,CALM,��
2018/08/02,22:40,0.328,0.207,0.336,0.321,0.293,0.164,0.101,�k,0.8,��
2018/08/02,22:50,0.332,0.207,0.339,0.324,0.297,0.164,0.102,�k,0.9,��
2018/08/02,23:00,0.334,0.208,0.339,0.326,0.297,0.164,0.102,�k,1.7,��
2018/08/02,23:10,0.330,0.209,0.335,0.322,0.292,0.164,0.100,�k�k��,1.6,��
2018/08/02,23:20,0.329,0.207,0.341,0.323,0.294,0.164,0.102,�k�k��,1.7,��
2018/08/02,23:30,0.334,0.208,0.339,0.326,0.299,0.164,0.102,�k�k��,1.8,��
2018/08/02,23:40,0.332,0.208,0.337,0.323,0.293,0.163,0.101,�k�k��,1.8,��
2018/08/02,23:50,0.328,0.206,0.340,0.320,0.292,0.165,0.101,�k�k��,2.0,��
